AirNav   Everest Fuels
 
 974 users online  

81MI Three Rivers Health Heliport
Three Rivers, Michigan, USA

GOING TO THREE RIVERS?


FAA INFORMATION EFFECTIVE 18 JUNE 2020

Location

FAA Identifier: 81MI
Lat/Long: 41-56-07.7100N 085-38-55.3500W
41-56.128500N 085-38.922500W
41.9354750,-85.6487083
(estimated)
Elevation: 818 ft. / 249 m (estimated)
From city: 1 mile SW of THREE RIVERS, MI
Time zone: UTC -4 (UTC -5 during Standard Time)
Zip code: 49093

Heliport Operations

Heliport use: Private use. Permission required prior to landing
Activation date: 12/2017
Control tower: no
ARTCC: CHICAGO CENTER
FSS: CLEVELAND FLIGHT SERVICE STATION
Attendance: 
Wind indicator: yes
Segmented circle: no

Heliport Communications

WX AWOS-3 at HAI (2.9 nm NE): 119.975 (269-273-6705)
WX AWOS-3 at IRS (12 nm SE): 121.325 (269-659-8715)
WX ASOS at AZO (18 nm N): 127.25 (269-459-3391)

Nearby radio navigation aids

VOR radial/distance  VOR name  Freq  Var
AZOr194/18.6KALAMAZOO VOR/DME109.0001W
ELXr121/24.6KEELER VOR/DME116.6000E
GSHr035/29.9GOSHEN VORTAC113.7000E
GIJr072/31.6GIPPER VORTAC115.4000E
PMMr148/37.7PULLMAN VOR/DME112.1000E

 
NDB name  Hdg/Dist  Freq  Var  ID
STURGIS311/12.138204WIRS .. .-. ...
AUSTN207/12.937103WAZ .- --..

Heliport Services

Runway Information

Helipad H1

Dimensions: 50 x 50 ft. / 15 x 15 m
Surface: concrete, in good condition
Latitude: 41-56.128500N
Longitude: 085-38.922500W
Elevation: 818.0 ft.
Traffic pattern: leftleft

Heliport Ownership and Management from official FAA records

Ownership: Privately-owned
Owner: THREE RIVERS HEALTH SYSTEM INC.
701 S. HEALTH PARKWAY
THREEE RIVERS, MI 49093
Phone 269-278-1145
Manager: LUKE PARSONS
701 S. HEALTH PARKWAY
THREE RIVERS, MI 49093
Phone 269-273-9661

Additional Remarks

FOR CD CTC CLEVELAND ARTCC AT 440-774-0490.

Instrument Procedures

There are no published instrument procedures at 81MI.

Some nearby airports with instrument procedures:

KHAI - Three Rivers Municipal Dr Haines Airport (3 nm NE)
KIRS - Kirsch Municipal Airport (12 nm SE)
KAZO - Kalamazoo/Battle Creek International Airport (18 nm N)
KEKM - Elkhart Municipal Airport (20 nm SW)
C91 - Dowagiac Municipal Airport (22 nm W)
 
Loc | Ops | Rwys | IFR | FBO | Links
Com | Nav | Svcs | Stats | Notes
Aerial photo
No photo
 
Airport distance calculator
Flying to Three Rivers Health Heliport? Find the distance to fly.

From to 81MI

Sunrise and sunset
Times for 07-Jul-2020
 Local
(UTC-4)
 Zulu
(UTC)
Morning civil twilight05:4209:42
Sunrise06:1610:16
Sunset21:1901:19
Evening civil twilight21:5301:53

Current date and time
Zulu (UTC)  08-Jul-2020 00:55:11
Local (UTC-4)  07-Jul-2020 20:55:11
 
METAR
KHAI 
3nm NE 
080035Z AUTO 00000KT 10SM CLR 30/19 A2995 RMK AO2 T02970191
KIRS 
13nm SE 
080036Z AUTO 00000KT 10SM CLR 27/20 A2994 RMK AO2 T02740195
KAZO 
18nm N 
072353Z VRB05KT 10SM CLR 32/18 A2993 RMK AO2 SLP130 60000 T03220178 10344 20317 55002
TAF
KAZO 
18nm N 
071732Z 0718/0818 26010KT P6SM VCTS SCT050CB SCT120 SCT250 FM072100 26008KT P6SM SCT040 FM080000 00000KT P6SM SKC FM081200 11003KT P6SM BKN045 FM081700 18006KT P6SM SCT070
NOTAMs
Click for the latest NOTAMs
NOTAMs are issued by the DoD/FAA and will open in a separate window not controlled by AirNav.

 

 
 

Would you like to see your business listed on this page?

 If your business provides an interesting product or service to pilots, flight crews, aircraft, or users of the Three Rivers Health Heliport, you should consider listing it here.  To start the listing process, click on the button below
 
Add a business
 

Other Pages about Three Rivers Health Heliport

Update a link
 
Copyright © AirNav, LLC. All rights reserved. Privacy Policy  Contact